Organisateur, détaillez votre épreuve !!!
Pour + de renseignements, cliquez ici !!!
INSCRIVEZ VOUS ET PAYEZ EN LIGNE Engagé(e)s*
Nom de la course Lieu Insc Date Officiel Internet
Ronde de Château Gombert Marseille Dim 31/03 -
Crse Féminine de Printemps Les Pennes Mbeau Dim 07/04
Open ô Pennes Les Pennes Mbeau Dim 07/04
Trail de la Mure Marseille Fontainieu Dim 14/04
Verticale de l Escale L Escale Sam 20/04
Trail de l Escalo L Escale Dim 21/04
Duath Trail de l Escale L Escale Dim 21/04
Chemins de Sainte-Rosalie La Fare les Oliviers Lun 22/04
Nature Color Run Cabries Dim 28/04 -
Draille de Mourre Poussiou Fos sur Mer Dim 5/05
Trail des Eaux Vives Marseille la Barasse Merc 08/05
Officiel = MAJ manuelle, courrier+web - Internet = MAJ automatique, dès constatation des inscriptions web
Accueil Courir en France
Pour obtenir un devis, cliquez ici !!!

Classement Général au Scratch

Utilisez ce formulaire pour calculer votre vitesse
Les décimales, doivent toujours être séparées par un POINT

Distance

Heures

Minutes

Secondes

Km/h

Imprimez votre diplôme !!!
Epreuve chronométrée par courirenfrance
Toute reproduction intégrale ou partielle sans le consentement préalable de courirenfrance serait illicite et constituerait une contrefaçon sanctionnée par la loi en vigueur propre au code de la propriété intellectuelle.
Classement des 5 Km
Région ou Ville Distance Nom de l'Epreuve Date Rentrants
Bouc Bel Air - [13] 15.9 Km 4e Trail de Bouc Bel Air 01/12/2018 509
Nom Prénom Doss. Cat. Club Temps
261 LENQUETTE FREDERIC 294 M1M 85  TRIATHL AIX 1:49:01
262 RULLIERE FABRICE 430 SEM 97  PERTUIS 1:49:02
263 GONCALVES RITA 238 M2F 2  ALLUMES STE VICTOIRE 1:49:07
264 DECOMBA JENNIFER 159 SEF 18  NATURE PASSION 1:49:08
265 MALET VANESSA 312 SEF 19  CROSS TRAINER 13 1:49:10
266 GRIFFON LAURE 244 M1F 13  BBA TRAIL CLUB 1:49:14
267 LE GLOANIC YOANN 530 SEM 98  ISTRES 1:49:24
268 CHABROL OLIVIER 549 M1M 86  VITROLLES SPORT ATHLE 1:49:26
269 SQUITIERI MARC 455 M2M 31  SYLVIA 1:49:29
270 MANIGEANS PATRICE 319 M1M 87  SEILLONS SCE D ARGEN 1:49:31
271 BIANCOTTO STEPHANE 556 SEM 99  AIX EN PROVENCE 1:49:37
272 FIORI CATHERINE 207 SEF 20  CABBA 1:49:48
273 COLL ALEXANDRE 142 SEM 100  PERTUIS 1:49:51
274 RAFFIER ADRIEN 402 SEM 101  ROUSSET 1:49:53
275 BEGMANN GILLES 70 M2M 32  AIX EN PROVENCE 1:49:55
276 ROCHER SANDRINE 421 M1F 14  TEAM DE L OURS 1:49:56
277 JACQUIER DOMINIQUE 259 M2M 33  TEAM CONSEILS CAP 1:49:58
278 SUAREZ MARIE LINE 521 M2F 3  AIX ATHLE PROVENCE 1:50:00
279 SIMIONE CHRISTELLE 450 M1F 15  SIMIANE COLLONGUE 1:50:02
280 SIMIONE ERIC 451 M1M 88  SIMIANE COLLONGUE 1:50:03
281 ESPARDEILLE NATHALIE 197 M2F 4  OCC COURSE A PIED 1:50:04
282 BURGIO ELODIE 547 M1F 16  SMAC 1:50:07
283 JAYNE PATRICK 263 M1M 89  AURIOL 1:50:14
284 FESTA NICOLAS 206 M1M 90  CROSS TRAINER 13 1:50:16
285 TURINI OLIVIER 469 M1M 91  SEPTEMES 1:50:18
286 JENN CORALIE 264 SEF 21  CABBA 1:50:20
287 CAPPELLETTO CARINE 114 M1F 17  AIL ROUSSET RUNNING 1:50:22
288 BIANCO NICOLAS 80 M1M 92  SEPTEMES 1:50:23
289 BREYSSE CHRISTIAN 102 M3M 6  AIL ROUSSET RUNNING 1:50:25
290 TITOTTO MANDY 466 M1F 18  OCC COURSE A PIED 1:50:26
291 DUFAURE CELINE 194 M1F 19  LANCON PROVENCE 1:50:27
292 MARIOTTI DAMIEN 323 M1M 93  TRETS 1:50:34
293 CHAIX ALEXANDRA 128 M2F 5  AIX ATHLE PROVENCE 1:50:35
294 BOYER BEATRICE 98 M3F 2  CABBA 1:50:40
295 ALLIO CAROLINE 551 SEF 22  BEGLES 33 1:50:41
296 ALLIO FREDERIC 36 SEM 102  KM 42 195 MARSEILLE 1:50:43
297 MARRONY SEVERINE 327 M1F 20  COURIR A FUVEAU 1:50:44
298 MARRONY OLIVIER 326 M2M 34  COURIR A FUVEAU 1:50:46
299 LATIL D ALBERTAS DANIELLE 282 M2F 6  BOUC BEL AIR 1:50:47
300 GAVOTY MARION 231 M2F 7  CABBA 1:50:48
301 AUDIBERT PAULINE 56 SEF 23  AIX ATHLE PROVENCE 1:50:49
302 DEMOTES-MAINARD PAQUERETTE 169 M1F 21  BOUC BEL AIR 1:50:51
303 AUBERT EMELINE 54 M1F 22  CABBA 1:50:53
304 DEMOTES-MAINARD F-XAVIER 168 M1M 94  BOUC BEL AIR 1:50:54
305 NALIN PASCAL 351 SEM 103  GARDANNE 1:50:55
306 DOGNIN CAMILLE 184 SEF 24  LES ANGLES 30 1:50:58
307 DESBRIERES CANELLE 174 SEF 25  ALE TRIATHLON 1:51:00
308 MALZAC CORENTIN 313 SEM 104  ALE TRIATHLON 1:51:01
309 BARRAULT FRANCK 65 M1M 95  CHATEAUNEUF LES M 1:51:03
310 ARDEBOL STEPHANE 46 M2M 35  PUYRICARD 1:51:04
311 RICHTER SYLVIE 416 SEF 26  CABBA 1:51:06
312 PANFILI MATHIEU 368 SEM 105  CABBA 1:51:07
313 GASCHET JEROME 227 M1M 96  AIX EN PROVENCE 1:51:09
314 MORALES NICOLAS 348 SEM 106  VITROLLES 1:51:11
315 HAREAU NICOLAS 247 M2M 36  LE PRADET 1:51:13
316 PITIOT SEVERINE 390 M1F 23  CABBA 1:51:14
317 BRAQUEHAIS YOANN 99 M1M 97  LUYNES 1:51:16
318 GOUNON JEAN MARIE 508 M2M 37  AGDE 34 1:51:17
319 SABATIER CHRISTOPHE 432 M1M 98  PREPAPHYSIQUE MIRAMAS 1:51:19
320 FERNANDEZ DANIEL 203 M1M 99  MARSEILLE 1:51:20
321 ONILLON FREDDY 360 M1M 100  BBA TRAIL CLUB 1:51:21
322 APPERCEL ROGER 44 M3M 7  COURIR AU ROVE 1:51:23
323 BIGAY BERTRAND 82 M2M 38  AIX ATHLE PROVENCE 1:51:25
324 AUBERT CAMILLE 53 SEF 27  AIX ATHLE PROVENCE 1:51:26
325 JUSTAFRE ANDRE 267 M1M 101  COUDOUX OLYMPIQUE 1:51:27
326 CHAVE LAURENT 136 M1M 102  AUBAGNE 1:51:29
327 ORGAZ MIKAEL 361 M1M 103  CAILLETTE CLUB 1:51:31
328 CLARY LORENZA 139 M1F 24  MARIGNANE 1:51:33
329 RANSAN PATRICIA 403 M1F 25  SALIN DE GIRAUD 1:51:34
330 LASSAIGNE BERENGERE 280 M1F 26  SMUC 1:51:37
331 BENDRER LARBI 5 M2M 39  DECATHLON 1:51:41
332 LATIL D ALBERTAS CHARLOTTE 281 SEF 28  PARIS 1:51:42
333 MANIER CELINE 318 SEF 29  LUYNES 1:51:43
334 MAYOR MAGALI 335 M1F 27  AIX EN PROVENCE 1:51:44
335 DOUCHY ERIC 189 M1M 104  BOUC BEL AIR 1:51:45
336 BERTRAND ANGELIQUE 79 SEF 30  CROSS TRAINER 13 1:51:46
337 AUCLAIR JEROME 55 SEM 107  MARSEILLE 1:51:48
338 BOUILLON GABRIEL 92 SEM 108  VENELLES 1:51:49
339 DI PALMA ANTOINE 566 M2M 40  ALLUMES STE VICTOIRE 1:51:53
340 DJERROU DOMINIQUE 183 M3M 8  BBA TRAIL CLUB 1:51:57
341 FAGET JEAN LUC 534 M2M 41  LES PENNES MBEAU 1:51:59
342 URVOY GWENAELLE 470 M1F 28  PREPAPHYSIQUE MIRAMAS 1:52:00
343 PIANA HELENE 383 M2F 8  AIX ATHLE PROVENCE 1:52:03
344 BOUTEILLE CYRIL 520 M1M 105  TRETS 1:52:04
345 LOCOSTE NICOLAS 301 M3M 9  NICE 1:52:07
346 LELIEVRE REBECCA 293 SEF 31  RAPHELE LES ARLES 1:52:09
347 MESSORI BERNARD 340 M2M 42  ATSCAF ST VICTORET 1:52:12
348 QUERE MELINDA 401 SEF 32  ATSCAF ST VICTORET 1:52:14
349 MARTHOURET SABINE 328 M1F 29  AIX ATHLE PROVENCE 1:52:18
350 LE GLOANIC CYRIL 531 M2M 43  ISTRES 1:52:26
351 LOPES PATRICK 302 M1M 106  CROSS TRAINER 13 1:52:29
352 DER KRIKORIAN FRANCOISE 171 M2F 9  MACADAM BASKETS 1:52:30
353 POLGE MURIEL 393 M1F 30  BOUC BEL AIR 1:52:34
354 COUSTENOBLE NICOLAS 150 M2M 44  BOUC BEL AIR 1:52:40
355 BOURRELLY ELODIE 96 M1F 31  ESPRIT LACORDAIRE 1:52:41
356 FALCO BENEDICTE 201 SEF 33  FUVEAU 1:52:49
357 BOYRON NICOLAS 495 SEM 109  MARSEILLE 1:52:50
358 PESCE ALINE 542 SEF 34  TRAIL ECO RAID 1:52:58
359 GIRAUD CHRISTIAN 237 M3M 10  COURIR AU ROVE 1:52:59
360 HILL EMMANUEL 251 SEM 110  BOUC BEL AIR 1:53:01
361 GARCIA PASCAL 222 M1M 107  GARDANNE 1:53:02
362 PONTI CECILIA 396 SEF 35  LUYNES 1:53:04
363 MEDINA JULIEN 339 SEM 111  FUVEAU 1:53:05
364 PAQUIN RAPHAEL 373 SEM 112  LE ROVE 1:53:08
365 ISSAVERDENS ROBERT 258 M1M 108  A NOUS LA VICTOIRE 1:53:13
366 CARATTI FLORENCE 115 M1F 32  VITROLLES TRIATHLON 1:53:16
367 GANILLE SYLVIE 218 M2F 10  ALLUMES STE VICTOIRE 1:53:19
368 DETAILLEUR BRICE 178 M2M 45  LE ROVE 1:53:21
369 JANNOU PHILIPPE 261 M1M 109  ST RAPHAEL 1:53:23
370 PORTELETTE JOCELYNE 398 M2F 11  CROSS TRAINER 13 1:53:56
371 MARTIN AURELIE 329 SEF 36  NATURE PASSION 1:54:05
372 GOUNON FABIEN 239 M1M 110  LES MILLES 1:54:06
373 DELEBURY NATHALIE 163 M1F 33  COURIR AU ROVE 1:54:22
374 BENSIMHON DAVID 76 M1M 111  MARSEILLE 1:54:24
375 BONNERY INGRID 88 SEF 37  COURIR AU ROVE 1:54:25
376 GRAS KARELLE 243 M1F 34  LE ROVE 1:54:27
377 OVINET THOMAS 363 SEM 113  BOUC BEL AIR 1:54:29
378 DIDO CHRISTIAN 180 M2M 46  MACADAM BASKETS 1:54:34
379 BENATI PIERRE-STEPHANE 75 M2M 47  A NOUS LA VICTOIRE 1:54:36
380 VITRY ALEXANDRE 484 SEM 114  SIX FOURS LES PLAGES 1:54:38
381 SPAGNOU CHRISTOPHE 454 SEM 115  LUYNES 1:54:43
382 ORSATELLI BENJAMIN 362 SEM 116  GARDANNE 1:54:46
383 MARTIN CELINE 330 M1F 35  BOUC BEL AIR 1:54:48
384 BOUVIER FLORIAN 97 M1M 112  CLES GARDANNE 1:54:58
385 VIGNAU JEAN-FRANCOIS 480 SEM 117  BOUC BEL AIR 1:55:07
386 MAMAN GREGORY 314 M1M 113  EGUILLES 1:55:13
387 MAMAN SAMUEL 315 SEM 118  MARSEILLE 1:55:13
388 CHORNET BRUNO 137 M2M 48  CLES GARDANNE 1:55:26
389 COISINE-CIRERA MARIE-CLAIRE 141 M1F 36  CLES GARDANNE 1:55:28
390 LEROY YANNICK 296 SEM 119  AIX EN PROVENCE 1:55:37
391 ABECASSIS JOSEPH 27 SEM 120  TOULON 1:56:24
392 CUBLE-CHANAT EMILIE 564 M1M 114  LANCON PROVENCE 1:56:27
393 GIRARDIER LUSSEAU MAGALIE 236 M1F 37  CROSS TRAINER 13 1:56:34
394 GUNZ BRUNO 246 M1M 115  BOUC BEL AIR 1:56:36
395 CAUSERO SAMUEL 122 ESM 6  PERTUIS 1:56:43
396 CURTI LAURENT 12 M1M 116  DECATHLON 1:57:34
397 SAIDI KAMEL 560 M2M 49  AIX EN PROVENCE 1:57:41
398 ISOARD GILBERT 257 M3M 11  ESPRIT LACORDAIRE 1:58:32
399 BARTHALOIS JULIEN 66 M1M 117  RAPHELE LES ARLES 1:58:37
400 RUFFIE ERIC 427 SEM 121  GARDANNE 1:58:40
401 TRONCHE PATRICK 468 M2M 50  BOUC BEL AIR 1:58:43
402 MARTINEZ SOPHIE 539 M1F 38  SIX FOURS TRIATHLON 1:58:44
403 LE PHILIPPE ANNE-LAURE 288 M1F 39  BOUC BEL AIR 1:58:51
404 LANDRY CHRIS 278 SEM 122  BOUC BEL AIR 1:58:52
405 VUIDOT GREGORY 485 M1M 118  MARSEILLE 1:59:11
406 FRANCOIS FREDERIC 543 M1M 119  TRAIL ECO RAID 1:59:18
407 BONNETEAU MARION 6 SEF 38  DECATHLON 1:59:20
408 GRAMAGLIA PAUL 241 M1M 120  RIANS 1:59:46
409 ANDREIS LAURENCE 41 M2F 12  CLES GARDANNE 1:59:51
410 ANDREIS JULIEN 40 SEM 123  GARDANNE 1:59:52
411 SIMONIN GERARD 452 M3M 12  ALLAUCH 1:59:55
412 VERD PIERRE 23 M1M 121  DECATHLON 1:59:57
413 KOEHL ALEXANDRE 519 SEM 124  MARSEILLE 2:00:33
414 BELIN FRANCK 73 M1M 122  FUVEAU 2:00:37
415 MAILLOT LOIKA 308 SEF 39  USC SEPTEMES 2:00:40
416 PROVENS ADRIEN 400 SEM 125  LA TOUR D AIGUES 2:00:42
417 NAMMOUR JEROME 352 SEM 126  AIX EN PROVENCE 2:00:54
418 SAILLE VINCENT 434 SEM 127  BOUC BEL AIR 2:00:56
419 SURBLED MARC 457 M2M 51  A NOUS LA VICTOIRE 2:01:01
420 ZARCO JEAN-JOSE 491 M1M 123  LE PUY STE REPARADE 2:01:02
421 JANNOU VANESSA 262 M1F 40  FREJUS 2:01:15
422 LAUGIER EMILIE 285 M1F 41  STUDIO COACHING 2:01:16
423 PECORINI JEAN-CHARLES 380 SEM 128  SLVNLS 2:01:28
424 OUAZANI ISMAEL 16 SEM 129  DECATHLON 2:01:34
425 RAMINI BACHIR 20 M2M 52  DECATHLON 2:01:37
426 WATTERLOT LUDOVIC 24 M2M 53  DECATHLON 2:01:40
427 MOHAMMEDI OLFA 346 M1F 42  CLES GARDANNE 2:01:41
428 VAHANIAN DENIS 471 M2M 54  SPEEDY CLUB PROVENCE 2:01:45
429 ESTARQUE FRED 198 M3M 13  ST MAXIMIN LA STE B 2:01:47
430 MAY ADRIAN 524 M1M 124  ST MAXIMIN LA STE B 2:02:21
431 EYSSERIC JULIA 199 M2F 13  CLES GARDANNE 2:02:32
432 DERDERIAN JEAN MARC 173 M2M 55  CLES GARDANNE 2:02:34
433 BLASQUEZ GERARD 561 M3M 14  AIX EN PROVENCE 2:02:59
434 BERARD ROMAIN 78 M1M 125  MARSEILLE 2:03:15
435 SERVONNAT NATHANAEL 448 M1M 126  MARSEILLE 2:03:18
436 CHAVANNE CHRISTOPHE 134 M1M 127  MARSEILLE 2:03:23
437 PAPPALARDO STEPHANIE 370 M1F 43  CLES GARDANNE 2:03:43
438 GIORDANO MARIE-PIERRE 235 M1F 44  MARSEILLE 2:03:52
439 FERNANDEZ LAURA 204 SEF 40  POURRIERES 2:03:59
440 CAPDEVILLE STEPHANE 111 M1M 128  ST MAXIMIN LA STE B 2:04:01
441 CARDINALE PIERRE 116 SEM 130  NANS LES PINS 2:04:56
442 MARTIN DIMITRI 331 M1M 129  BOUC BEL AIR 2:05:10
443 MIRABILE SABINE 344 M1F 45  CROSS TRAINER 13 2:05:31
444 MARIOTTI VIRGINIE 324 M1F 46  TRETS 2:05:38
445 GOURIOU CEDRIC 240 M1M 130  ALLUMES STE VICTOIRE 2:05:55
446 MISTRE CHRISTINE 345 M1F 47  TOP COURIR MARSEILLE 2:06:42
447 CASTANER FREDERIC 121 M2M 56  TOP COURIR MARSEILLE 2:06:43
448 REYNAUD PHILIPPE 412 M1M 131  SEPTEMES 2:06:49
449 KROPFINGER MAGALI 273 M1F 48  CARNOUX EN PCE 2:06:52
450 GARCIA MARJORIE 221 M1F 49  TRAIL CLUB DE PROVENCE 2:06:54
451 CLANET CATHERINE 553 M2F 14  VITROLLES 2:06:56
452 SARR PASCALE 439 M1F 50  ST MAXIMIN LA STE B 2:07:13
453 LAUGIER CYRIL 284 M1M 132  STUDIO COACHING 2:07:21
454 GALLARDO MARIE-LAURE 213 M1F 51  USC SEPTEMES 2:07:55
455 ALQUIER CORINNE 37 M2F 15  USC SEPTEMES 2:07:56
456 FACHE-MICHEL PATRICK 200 M2M 57  USC SEPTEMES 2:07:59
457 LEROGNON RENAUD 537 SEM 131  AIX EN PROVENCE 2:08:37
458 LEDRUX CORALIE 535 SEF 41  AIX EN PROVENCE 2:08:40
459 CARTON LYSIANE 120 M1F 52  BOUC BEL AIR 2:08:41
460 PAROUTY FRANCOIS-ALAIN 376 M3M 15  BZ TEAM 2:08:46
461 PAROUTY PASCALE 377 M2F 16  BZ TEAM 2:08:49
462 STANKIEVITCH MICHEL 456 M3M 16  AIX ATHLE PROVENCE 2:09:04
463 MEBKHOUT CORINNE 337 M2F 17  GIGNAC LA NERTHE 2:09:09
464 ANGEVIN THIERRY 552 M2M 58  VITROLLES 2:09:16
465 RIPOLL ROMUALD 418 M1M 133  USA AUBENAS 2:09:17
466 RIPOLL MATHILDE 417 M1F 53  MONTPEZAT S BAUZON 2:09:18
467 HOANG-VAN CAROLINE 252 SEF 42  FUVEAU 2:09:20
468 DEMOLA LAURENT 167 M2M 59  CAF AUBGNE GARLABAN 2:10:02
469 OUL-TERKI MAHIDIA 554 SEF 43  CHATEAUNEUF LES M 2:10:24
470 BADOUX SOPHIE 61 SEF 44  AIX EN PROVENCE 2:10:34
471 LAMOUREUX FANNY 277 SEF 45  SEPTEMES 2:10:35
472 CAZABAN CLAUDE 124 M3M 17  COURIR AU ROVE 2:10:55
473 GANDOLA JULIEN 215 SEM 132  LANCON PROVENCE 2:11:11
474 GANDOLA MATHIEU 216 SEM 133  LES MILLES 2:11:12
475 KRUSE STANKIEVITCH GYTHA 274 M2F 18  AIX ATHLE PROVENCE 2:11:13
476 PANQUET PHILIPPE 369 M1M 134  MARIGNANE 2:11:39
477 WITTMER-JOUANNE CAROLINE 489 M2F 19  AIX EN PROVENCE 2:12:20
478 RINAUD CHRISTINE 21 M1F 54  DECATHLON 2:12:27
479 TANAZACQ DIANE 460 SEF 46  LES PENNES MBEAU 2:14:27
480 CAUBEL JULIE 511 SEF 47  ASM VIEUX PORT 2:14:41
481 MARTIN CHRISTIAN 510 M1M 135  MARSEILLE 2:14:43
482 BONNEIL CAROLE 87 M1F 55  MARSEILLE 2:15:16
483 ASCIONE ALEXANDRA 2 SEF 48  DECATHLON 2:16:54
484 PROST MARIANNE 399 SEF 49  ST CYR AU MONT D OR 2:17:07
485 GAVOTY ERIC 230 M2M 60  AIX EN PROVENCE 2:17:58
486 GAGNAUX JEAN NOEL 210 M3M 18  EGUILLES 2:19:26
487 AUGUGLIARO ELODIE 3 SEF 50  DECATHLON 2:19:57
488 DE WAARD MAXENCE 9 ESM 7  DECATHLON 2:19:58
489 HERITIER CYRIL 14 SEM 134  DECATHLON 2:19:59
490 GEIGLE PATRICIA 232 M2F 20  JOGG CLUB MARTIGUES 2:20:01
491 REIGNIER JEREMY 408 SEM 135  JOGG CLUB MARTIGUES 2:20:02
492 VINCENT ERIC 482 M2M 61  JOGG CLUB MARTIGUES 2:20:03
493 CAVA QUENTIN 8 SEM 136  DECATHLON 2:20:05
494 RICHELME EMMANUEL 414 M1M 136  MARSEILLE 2:21:03
495 CHARTIER ELEONORE 131 M1F 56  MARSEILLE 2:21:04
496 PROT JULIE 19 SEF 51  DECATHLON 2:21:48
497 BOUROT KARINE 95 M1F 57  COURIR A MEYREUIL 2:22:08
498 LE GALO GWENOLA 287 M1F 58  ROGNAC ATHLETIC CLUB 2:22:10
499 CADET AURIANNE 107 SEF 52  ROGNAC ATHLETIC CLUB 2:22:12
500 DAUCHART KARINE 155 M2F 21  ROGNAC ATHLETIC CLUB 2:22:13
501 BENVENUTI CLAUDE 77 M4M 1  COURIR A MEYREUIL 2:22:22
502 CARDINALE-BOTTERO EMILIE 117 SEF 53  NANS LES PINS 2:25:51
503 MANSOURI CATHERINE 320 M2F 22  ST MAXIMIN LA STE B 2:25:53
504 HELLUIN JEREMY 13 SEM 137  DECATHLON 2:28:27
505 ROUBAUD JADE 22 SEF 54  DECATHLON 2:28:48
506 VINCENT FIONA 483 SEF 55  LA CROIX VALMER 83 2:28:49
507 GOMBERT ALAIN 555 M2M 62  MARTIGUES 2:29:48
508 NICOLAU STEPHANIE 356 M1F 59  TOURVES 2:31:10
509 MIALET NANCY 341 M1F 60  ST MAXIMIN LA STE B 2:31:11
P 1 - P 2
 Recherchez un Nom, un Club, une catégorie ou un N° de Dossard :    

Vous disposez d'un droit d'accès, de modification, de rectification et de suppression des données qui vous concernent (art. 34 de la loi "Informatiques et libertés du 6 janvier 1978). Pour l'exercer, adressez vous à alain
 
Copyright © 1999-2019 Courir en France
Tous droits Réservés